ALBT28 YWLM-YWLM

Flight info

Callsign ALBT28
Flight time 0h 33m
Altitude 48000
Route N0424F480 DCT WM310 DCT WM309 DCT WM308 DCT WM307 DCT WM305 DCT WM306 DCT WM313 DCT WM312 DCT NELSN DCT 324852S1521939E 325412S1521850E 325858S1521642E DCT ASUVA DCT 330634S1520944E DCT 330817S1520709E DCT
Aircraft Q4/H-SDFGHIJ5KM1RTUWXYZ/LB101

Departure

Time 2026-04-28 09:39
Airport Newcastle Airport (YWLM)

Arrival

Time 2026-04-28 10:12
Airport Newcastle Airport (YWLM)
Time Latitude Longitude Altitude Speed Heading
2026-04-28 09:27 -32.79794 151.84265 29 ft 0 kts 145°
2026-04-28 09:27 -32.79809 151.84268 29 ft 5 kts 194°
2026-04-28 09:28 -32.79817 151.84259 29 ft 0 kts 233°
2026-04-28 09:33 -32.79839 151.84260 29 ft 3 kts 156°
2026-04-28 09:34 -32.79844 151.84264 29 ft 5 kts 143°
2026-04-28 09:35 -32.79887 151.84212 31 ft 18 kts 284°
2026-04-28 09:35 -32.79805 151.84066 32 ft 13 kts 309°
2026-04-28 09:35 -32.79721 151.83954 30 ft 23 kts 310°
2026-04-28 09:35 -32.79599 151.83784 29 ft 30 kts 310°
2026-04-28 09:36 -32.79462 151.83593 27 ft 31 kts 310°
2026-04-28 09:36 -32.79314 151.83387 28 ft 35 kts 310°
2026-04-28 09:36 -32.79154 151.83166 31 ft 37 kts 309°
2026-04-28 09:36 -32.78987 151.82928 30 ft 40 kts 312°
2026-04-28 09:37 -32.78810 151.82682 27 ft 30 kts 310°
2026-04-28 09:37 -32.78775 151.82633 27 ft 3 kts 312°
2026-04-28 09:37 -32.78739 151.82583 27 ft 13 kts 307°
2026-04-28 09:37 -32.78661 151.82479 27 ft 21 kts 315°
2026-04-28 09:38 -32.78613 151.82389 27 ft 1 kts 248°
2026-04-28 09:38 -32.78626 151.82376 27 ft 2 kts 238°
2026-04-28 09:38 -32.78647 151.82342 27 ft 11 kts 220°
2026-04-28 09:38 -32.78732 151.82283 28 ft 15 kts 139°
2026-04-28 09:39 -32.78797 151.82373 25 ft 69 kts 130°
2026-04-28 09:39 -32.79434 151.83261 281 ft 182 kts 129°
2026-04-28 09:39 -32.80274 151.84440 1202 ft 182 kts 128°
2026-04-28 09:39 -32.81128 151.85645 2547 ft 227 kts 128°
2026-04-28 09:40 -32.82321 151.87269 2986 ft 276 kts 130°
2026-04-28 09:40 -32.83620 151.89019 3888 ft 287 kts 130°
2026-04-28 09:40 -32.84963 151.90804 4802 ft 292 kts 130°
2026-04-28 09:40 -32.86334 151.92623 5697 ft 296 kts 130°
2026-04-28 09:41 -32.87721 151.94456 6606 ft 299 kts 130°
2026-04-28 09:41 -32.89118 151.96299 7476 ft 300 kts 130°
2026-04-28 09:41 -32.90507 151.98146 8369 ft 299 kts 131°
2026-04-28 09:41 -32.91872 151.99995 9283 ft 296 kts 131°
2026-04-28 09:42 -32.93184 152.01820 10201 ft 290 kts 130°
2026-04-28 09:42 -32.94013 152.03972 10972 ft 292 kts 101°
2026-04-28 09:42 -32.93756 152.06356 11802 ft 297 kts 70°
2026-04-28 09:42 -32.92522 152.08309 12671 ft 294 kts 45°
2026-04-28 09:43 -32.91056 152.10003 13612 ft 294 kts 43°
2026-04-28 09:43 -32.89533 152.11626 14516 ft 294 kts 42°
2026-04-28 09:43 -32.87995 152.13216 15374 ft 293 kts 41°
2026-04-28 09:43 -32.86466 152.14802 16262 ft 291 kts 42°
2026-04-28 09:44 -32.84948 152.16388 17166 ft 289 kts 43°
2026-04-28 09:44 -32.83459 152.17976 18101 ft 287 kts 43°
2026-04-28 09:44 -32.81992 152.19571 19004 ft 284 kts 43°
2026-04-28 09:44 -32.80532 152.21166 19750 ft 287 kts 43°
2026-04-28 09:45 -32.79060 152.22783 20408 ft 292 kts 43°
2026-04-28 09:45 -32.77539 152.24454 20747 ft 305 kts 43°
2026-04-28 09:45 -32.75946 152.26198 20898 ft 318 kts 43°
2026-04-28 09:45 -32.74293 152.28009 20966 ft 327 kts 43°
2026-04-28 09:46 -32.72601 152.29860 20997 ft 334 kts 43°
2026-04-28 09:46 -32.70880 152.31735 21007 ft 338 kts 43°
2026-04-28 09:46 -32.69146 152.33629 21009 ft 340 kts 43°
2026-04-28 09:46 -32.67398 152.35538 21018 ft 341 kts 43°
2026-04-28 09:47 -32.65644 152.37445 21023 ft 342 kts 43°
2026-04-28 09:47 -32.63890 152.39354 21019 ft 343 kts 43°
2026-04-28 09:47 -32.62163 152.41232 21539 ft 327 kts 43°
2026-04-28 09:47 -32.60536 152.42993 22529 ft 303 kts 43°
2026-04-28 09:48 -32.59039 152.44614 23774 ft 281 kts 43°
2026-04-28 09:48 -32.57632 152.46136 24786 ft 266 kts 43°
2026-04-28 09:48 -32.56279 152.47570 25731 ft 256 kts 43°
2026-04-28 09:48 -32.54963 152.48952 26669 ft 248 kts 43°
2026-04-28 09:49 -32.53679 152.50281 27591 ft 243 kts 43°
2026-04-28 09:49 -32.52393 152.51589 28327 ft 245 kts 43°
2026-04-28 09:49 -32.51126 152.52865 29254 ft 239 kts 43°
2026-04-28 09:49 -32.49866 152.54117 30192 ft 233 kts 43°
2026-04-28 09:50 -32.48625 152.55330 30991 ft 228 kts 43°
2026-04-28 09:50 -32.47394 152.56497 31742 ft 225 kts 43°
2026-04-28 09:50 -32.46167 152.57619 32477 ft 222 kts 43°
2026-04-28 09:50 -32.44933 152.58698 33205 ft 219 kts 44°
2026-04-28 09:51 -32.43691 152.59732 33919 ft 217 kts 43°
2026-04-28 09:51 -32.42438 152.60740 34450 ft 226 kts 43°
2026-04-28 09:51 -32.41078 152.61839 34628 ft 245 kts 43°
2026-04-28 09:51 -32.39636 152.63020 34904 ft 258 kts 42°
2026-04-28 09:52 -32.38000 152.64009 35125 ft 279 kts 17°
2026-04-28 09:52 -32.36040 152.63861 35398 ft 290 kts 340°
2026-04-28 09:52 -32.34340 152.62606 35692 ft 289 kts 315°
2026-04-28 09:52 -32.32820 152.61157 36450 ft 269 kts 314°
2026-04-28 09:53 -32.31444 152.59766 37278 ft 253 kts 314°
2026-04-28 09:53 -32.30150 152.58439 38049 ft 239 kts 313°
2026-04-28 09:53 -32.28920 152.57182 38774 ft 229 kts 313°
2026-04-28 09:53 -32.27734 152.55982 39373 ft 220 kts 313°
2026-04-28 09:54 -32.26590 152.54828 39904 ft 213 kts 313°
2026-04-28 09:54 -32.25487 152.53709 40403 ft 206 kts 313°
2026-04-28 09:54 -32.24367 152.52564 40508 ft 226 kts 313°
2026-04-28 09:54 -32.23114 152.51253 40413 ft 253 kts 313°
2026-04-28 09:55 -32.21909 152.49670 40325 ft 263 kts 291°
2026-04-28 09:55 -32.21614 152.47601 40331 ft 255 kts 253°
2026-04-28 09:55 -32.22338 152.45788 40347 ft 249 kts 226°
2026-04-28 09:55 -32.23383 152.44109 40358 ft 257 kts 225°
2026-04-28 09:56 -32.24532 152.42451 40361 ft 265 kts 224°
2026-04-28 09:56 -32.25750 152.40778 40174 ft 277 kts 223°
2026-04-28 09:56 -32.27097 152.38986 39325 ft 307 kts 223°
2026-04-28 09:56 -32.28567 152.37046 38175 ft 313 kts 222°
2026-04-28 09:57 -32.29847 152.35291 39027 ft 270 kts 223°
2026-04-28 09:57 -32.31160 152.33507 37667 ft 304 kts 223°
2026-04-28 09:57 -32.32582 152.31589 36298 ft 314 kts 222°
2026-04-28 09:57 -32.34029 152.29621 35002 ft 318 kts 222°
2026-04-28 09:58 -32.35470 152.27634 33663 ft 319 kts 223°
2026-04-28 09:58 -32.36582 152.25340 32203 ft 331 kts 245°
2026-04-28 09:58 -32.37184 152.22713 30889 ft 330 kts 250°
2026-04-28 09:58 -32.37730 152.20090 29467 ft 327 kts 252°
2026-04-28 09:59 -32.38257 152.17483 28018 ft 324 kts 253°
2026-04-28 09:59 -32.38790 152.14913 26644 ft 320 kts 253°
2026-04-28 09:59 -32.39343 152.12380 25335 ft 316 kts 253°
2026-04-28 09:59 -32.39924 152.09883 24081 ft 313 kts 253°
2026-04-28 10:00 -32.40531 152.07427 22650 ft 309 kts 253°
2026-04-28 10:00 -32.41145 152.05002 21263 ft 306 kts 252°
2026-04-28 10:00 -32.41750 152.02635 19938 ft 303 kts 252°
2026-04-28 10:00 -32.42403 152.00096 18633 ft 345 kts 252°
2026-04-28 10:01 -32.43126 151.97291 17186 ft 345 kts 252°
2026-04-28 10:01 -32.43771 151.94750 15823 ft 304 kts 252°
2026-04-28 10:01 -32.44296 151.92637 14353 ft 241 kts 252°
2026-04-28 10:01 -32.44725 151.90817 12580 ft 223 kts 252°
2026-04-28 10:02 -32.45128 151.89075 10877 ft 217 kts 252°
2026-04-28 10:02 -32.45756 151.87557 9576 ft 187 kts 226°
2026-04-28 10:02 -32.46902 151.86969 8597 ft 169 kts 186°
2026-04-28 10:02 -32.48297 151.86603 8574 ft 251 kts 188°
2026-04-28 10:03 -32.50027 151.86097 8735 ft 234 kts 202°
2026-04-28 10:03 -32.51175 151.85023 8457 ft 198 kts 218°
2026-04-28 10:03 -32.52335 151.84053 7493 ft 213 kts 221°
2026-04-28 10:03 -32.53244 151.82717 7002 ft 202 kts 234°
2026-04-28 10:04 -32.54036 151.81268 6020 ft 215 kts 240°
2026-04-28 10:04 -32.54797 151.79712 5041 ft 220 kts 240°
2026-04-28 10:04 -32.55575 151.78144 4071 ft 220 kts 239°
2026-04-28 10:04 -32.56343 151.76651 3504 ft 205 kts 237°
2026-04-28 10:05 -32.57196 151.75357 3223 ft 195 kts 227°
2026-04-28 10:05 -32.58067 151.74145 3103 ft 192 kts 228°
2026-04-28 10:05 -32.59057 151.72700 3048 ft 262 kts 231°
2026-04-28 10:05 -32.60045 151.71153 3032 ft 212 kts 231°
2026-04-28 10:06 -32.60906 151.69853 3030 ft 197 kts 230°
2026-04-28 10:06 -32.61759 151.68589 3053 ft 186 kts 230°
2026-04-28 10:06 -32.62534 151.67432 3037 ft 174 kts 231°
2026-04-28 10:06 -32.63409 151.66556 2910 ft 162 kts 196°
2026-04-28 10:07 -32.64455 151.66615 2879 ft 151 kts 166°
2026-04-28 10:07 -32.65747 151.66623 2927 ft 192 kts 174°
2026-04-28 10:07 -32.66846 151.67149 2917 ft 161 kts 133°
2026-04-28 10:07 -32.67627 151.68068 2931 ft 159 kts 134°
2026-04-28 10:08 -32.68414 151.68935 2963 ft 142 kts 129°
2026-04-28 10:08 -32.69128 151.69719 2838 ft 150 kts 134°
2026-04-28 10:08 -32.69889 151.70533 2608 ft 139 kts 134°
2026-04-28 10:08 -32.70587 151.71277 2418 ft 132 kts 135°
2026-04-28 10:09 -32.71253 151.72005 2243 ft 129 kts 135°
2026-04-28 10:09 -32.71914 151.72735 2084 ft 137 kts 132°
2026-04-28 10:09 -32.72592 151.73627 1901 ft 150 kts 127°
2026-04-28 10:09 -32.73254 151.74608 1703 ft 154 kts 125°
2026-04-28 10:10 -32.73932 151.75600 1513 ft 155 kts 127°
2026-04-28 10:10 -32.74632 151.76585 1324 ft 157 kts 128°
2026-04-28 10:10 -32.75349 151.77567 1131 ft 157 kts 128°
2026-04-28 10:10 -32.76068 151.78556 956 ft 159 kts 128°
2026-04-28 10:11 -32.76781 151.79565 735 ft 154 kts 129°
2026-04-28 10:11 -32.77386 151.80415 529 ft 125 kts 128°
2026-04-28 10:11 -32.77956 151.81187 297 ft 130 kts 129°
2026-04-28 10:11 -32.78552 151.82024 148 ft 136 kts 130°
2026-04-28 10:12 -32.79087 151.82773 31 ft 100 kts 129°
2026-04-28 10:12 -32.79477 151.83319 28 ft 77 kts 129°
2026-04-28 10:12 -32.79786 151.83755 29 ft 59 kts 130°
2026-04-28 10:12 -32.79808 151.83940 31 ft 19 kts 55°
2026-04-28 10:13 -32.79785 151.83978 31 ft 3 kts 51°
2026-04-28 10:13 -32.79777 151.83993 31 ft 5 kts 71°
2026-04-28 10:13 -32.79796 151.84055 32 ft 12 kts 123°
2026-04-28 10:13 -32.79771 151.84169 30 ft 20 kts 55°
2026-04-28 10:14 -32.79781 151.84274 29 ft 6 kts 210°
2026-04-28 10:14 -32.79782 151.84273 29 ft 0 kts 209°